OE-11369 Weather Reports


time (UTC)temp
C
wind
direction
speed
KPH
gust
KPH
rain 1hr
cm
rain 24hr
cm
rain mn
cm
humidity
%
barometer
mb
20260903084114 21 58 3.2 9.7 0.00 0.00 0.00 54 1020.9
20260903083502 20 16 3.2 8.0 0.00 0.00 0.00 58 1021.3
20260903082502 21 350 0.0 3.2 0.00 0.00 0.00 56 1021.0
20260903081115 20 221 3.2 6.4 0.00 0.00 0.00 61 1021.2
20260903080502 20 19 1.6 4.8 0.00 0.00 0.00 63 1021.2
20260903075502 20 319 1.6 6.4 0.00 0.00 0.00 63 1021.4
20260903074115 19 282 1.6 6.4 0.00 0.00 0.00 63 1021.5
20260903073501 18 124 0.0 4.8 0.00 0.00 0.00 66 1021.7
20260903072501 18 329 1.6 4.8 0.00 0.00 0.00 69 1022.0
20260903071115 17 323 1.6 6.4 0.00 0.00 0.00 74 1022.1
20260903070502 17 194 0.0 3.2 0.00 0.00 0.00 75 1022.2
20260903065502 16 299 0.0 3.2 0.00 0.00 0.00 77 1022.5
20260903064114 16 293 1.6 3.2 0.00 0.00 0.00 81 1022.6
20260903063501 15 259 1.6 3.2 0.00 0.00 0.00 83 1022.7
20260903062502 15 186 3.2 6.4 0.00 0.00 0.00 84 1022.8
20260903061115 15 189 1.6 8.0 0.00 0.00 0.00 84 1022.9
20260903060502 14 303 3.2 4.8 0.00 0.00 0.00 85 1022.9
20260903055501 14 294 1.6 4.8 0.00 0.00 0.00 85 1022.8
20260903054114 14 181 0.0 3.2 0.00 0.00 0.00 86 1022.8
20260903053502 14 304 3.2 4.8 0.00 0.00 0.00 86 1022.9
20260903052502 14 219 1.6 3.2 0.00 0.00 0.00 86 1022.8
20260903051115 13 174 3.2 4.8 0.00 0.00 0.00 86 1022.8
20260903050501 14 189 1.6 3.2 0.00 0.00 0.00 86 1022.6
20260903045502 13 349 1.6 6.4 0.00 0.00 0.00 86 1022.7
20260903044114 13 360 1.6 3.2 0.00 0.00 0.00 86 1022.5
20260903043501 14 22 1.6 3.2 0.00 0.00 0.00 86 1022.5
20260903042502 13 155 3.2 4.8 0.00 0.00 0.00 86 1022.6
20260903041114 14 165 1.6 4.8 0.00 0.00 0.00 85 1022.5
20260903040502 14 202 3.2 6.4 0.00 0.00 0.00 85 1022.5
20260903035502 14 127 1.6 3.2 0.00 0.00 0.00 85 1022.3
20260903034501 14 292 1.6 4.8 0.00 0.00 0.00 86 1022.5
20260903033501 14 190 1.6 4.8 0.00 0.00 0.00 86 1022.4
20260903032502 14 347 1.6 4.8 0.00 0.00 0.00 86 1022.4
20260903031115 13 181 1.6 3.2 0.00 0.00 0.00 86 1022.3
20260903030502 14 276 1.6 3.2 0.00 0.00 0.00 86 1022.4
20260903025502 13 302 0.0 3.2 0.00 0.00 0.00 86 1022.3
20260903024502 14 57 1.6 3.2 0.00 0.00 0.00 85 1022.3
20260903023502 13 321 1.6 4.8 0.00 0.00 0.00 87 1022.5
20260903022502 13 360 0.0 1.6 0.00 0.00 0.00 86 1022.2
20260903021114 13 264 1.6 4.8 0.00 0.00 0.00 86 1022.2
20260903020502 14 164 1.6 3.2 0.00 0.00 0.00 85 1022.3
20260903015502 13 22 1.6 3.2 0.00 0.00 0.00 86 1022.3
20260903014114 13 15 0.0 3.2 0.00 0.00 0.00 86 1022.3
20260903013501 14 311 0.0 3.2 0.00 0.00 0.00 86 1022.3
20260903012501 14 21 0.0 3.2 0.00 0.00 0.00 85 1022.4
20260903011115 14 348 0.0 3.2 0.00 0.00 0.00 85 1022.4
20260903010502 14 324 1.6 3.2 0.00 0.00 0.00 85 1022.4
20260903005502 14 98 0.0 3.2 0.00 0.00 0.00 84 1022.3
20260903004115 14 60 1.6 3.2 0.00 0.00 0.00 83 1022.3
20260903003502 14 41 1.6 3.2 0.00 0.00 0.00 84 1022.4
20260903002502 13 145 1.6 3.2 0.00 0.00 0.00 85 1022.4
20260903001514 13 253 0.0 3.2 0.00 0.00 0.00 85 1022.5
20260903000501 13 360 0.0 1.6 0.00 0.00 0.00 85 1022.5
20260902235501 13 87 1.6 3.2 0.00 0.00 0.00 85 1022.5
20260902234115 13 90 1.6 4.8 0.00 0.00 0.00 85 1022.6
20260902233502 13 96 1.6 4.8 0.00 0.00 0.00 84 1022.6
20260902232501 13 39 1.6 3.2 0.00 0.00 0.00 84 1022.7
20260902231502 13 75 1.6 4.8 0.00 0.00 0.00 83 1022.6
20260902230502 14 113 1.6 4.8 0.00 0.00 0.00 84 1022.4
20260902225502 14 46 1.6 3.2 0.00 0.00 0.00 83 1022.3
20260902224115 14 66 1.6 3.2 0.00 0.00 0.00 83 1022.1
20260902223502 15 105 1.6 4.8 0.00 0.00 0.00 82 1021.9
20260902222502 15 154 0.0 3.2 0.00 0.00 0.00 82 1021.9
20260902221115 15 348 1.6 3.2 0.00 0.00 0.00 81 1021.6
20260902220501 15 103 1.6 4.8 0.00 0.00 0.00 80 1021.4
20260902215502 16 100 1.6 4.8 0.00 0.00 0.00 79 1021.3
20260902214115 16 20 1.6 3.2 0.00 0.00 0.00 79 1021.2
20260902213501 16 12 1.6 6.4 0.00 0.00 0.00 79 1021.2
20260902211115 16 18 1.6 1.6 0.00 0.00 0.00 79 1021.1
20260902210502 16 27 1.6 4.8 0.00 0.00 0.00 79 1021.0
20260902205502 16 360 0.0 3.2 0.00 0.00 0.00 76 1020.7
20260902204116 16 154 1.6 3.2 0.00 0.00 0.00 77 1020.7
20260902203501 17 92 1.6 3.2 0.00 0.00 0.00 76 1020.7
20260902202502 17 242 0.0 3.2 0.00 0.00 0.00 76 1020.7
20260902201115 17 76 1.6 3.2 0.00 0.00 0.00 75 1020.6
20260902200502 17 122 1.6 4.8 0.00 0.00 0.00 73 1020.5
20260902195502 17 110 1.6 3.2 0.00 0.00 0.00 76 1020.7
20260902194115 17 83 0.0 3.2 0.00 0.00 0.00 73 1020.5
20260902193502 17 360 0.0 3.2 0.00 0.00 0.00 74 1020.5
20260902192501 17 121 1.6 4.8 0.00 0.00 0.00 73 1020.5
20260902191115 18 143 1.6 3.2 0.00 0.00 0.00 72 1020.4
20260902190501 18 50 1.6 3.2 0.00 0.00 0.00 69 1020.0
20260902185502 18 83 0.0 4.8 0.00 0.00 0.00 70 1020.0
20260902184115 19 124 3.2 6.4 0.00 0.00 0.00 65 1019.6
20260902183502 19 61 1.6 6.4 0.00 0.00 0.00 65 1019.6
20260902182502 19 73 3.2 6.4 0.00 0.00 0.00 65 1019.5
20260902181115 20 104 3.2 6.4 0.00 0.00 0.00 64 1019.2
20260902180502 20 92 1.6 6.4 0.00 0.00 0.00 63 1018.9
20260902175502 20 98 3.2 6.4 0.00 0.00 0.00 60 1018.6
20260902174115 20 290 3.2 9.7 0.00 0.00 0.00 58 1018.4
20260902173501 21 265 6.4 14.5 0.00 0.00 0.00 57 1018.2
20260902172502 21 267 6.4 12.9 0.00 0.00 0.00 56 1018.1
20260902171115 21 262 6.4 16.1 0.00 0.00 0.00 55 1017.9
20260902170502 21 260 9.7 24.1 0.00 0.00 0.00 54 1017.8
20260902165502 21 263 11.3 24.1 0.00 0.00 0.00 54 1017.8
20260902164115 22 256 11.3 24.1 0.00 0.00 0.00 53 1017.7
20260902163502 22 268 12.9 27.4 0.00 0.00 0.00 53 1017.6
20260902162502 22 269 11.3 24.1 0.00 0.00 0.00 52 1017.6
20260902161115 22 267 12.9 27.4 0.00 0.00 0.00 50 1017.4
20260902160501 22 270 9.7 25.7 0.00 0.00 0.00 49 1017.2
20260902155502 23 265 9.7 19.3 0.00 0.00 0.00 50 1017.1
20260902154115 23 272 9.7 16.1 0.00 0.00 0.00 50 1017.0
20260902153502 23 262 9.7 19.3 0.00 0.00 0.00 49 1017.0
20260902152501 23 264 12.9 24.1 0.00 0.00 0.00 47 1017.2
20260902151115 23 259 11.3 24.1 0.00 0.00 0.00 46 1017.1
20260902150502 24 267 11.3 20.9 0.00 0.00 0.00 46 1017.1
20260902145502 24 258 9.7 22.5 0.00 0.00 0.00 45 1017.1
20260902144115 24 262 8.0 16.1 0.00 0.00 0.00 44 1017.1
20260902143501 24 259 9.7 25.7 0.00 0.00 0.00 46 1017.1
20260902142502 24 266 12.9 20.9 0.00 0.00 0.00 46 1017.1
20260902141115 23 271 12.9 22.5 0.00 0.00 0.00 49 1017.4
20260902140502 23 261 12.9 29.0 0.00 0.00 0.00 47 1017.5
20260902135502 23 263 12.9 22.5 0.00 0.00 0.00 47 1017.5
20260902134113 23 263 11.3 22.5 0.00 0.00 0.00 46 1017.3
20260902133502 24 272 11.3 20.9 0.00 0.00 0.00 47 1017.2
20260902132502 24 278 9.7 19.3 0.00 0.00 0.00 48 1017.3
20260902131115 24 266 9.7 19.3 0.00 0.00 0.00 48 1017.2
20260902130502 24 268 12.9 24.1 0.00 0.00 0.00 47 1017.3
20260902125502 24 248 8.0 22.5 0.00 0.00 0.00 46 1017.3
20260902124114 24 263 9.7 24.1 0.00 0.00 0.00 48 1017.4
20260902123502 23 254 9.7 22.5 0.00 0.00 0.00 49 1017.5
20260902122502 24 215 8.0 22.5 0.00 0.00 0.00 46 1017.5
20260902121115 24 207 8.0 17.7 0.00 0.00 0.00 44 1017.4
20260902120501 25 205 4.8 16.1 0.00 0.00 0.00 43 1017.4
20260902115501 25 188 4.8 14.5 0.00 0.00 0.00 42 1017.4
20260902114115 25 208 8.0 16.1 0.00 0.00 0.00 43 1017.5
20260902113502 24 170 6.4 16.1 0.00 0.00 0.00 43 1017.5
20260902112502 23 170 8.0 17.7 0.00 0.00 0.00 43 1018.0
20260902111115 23 174 8.0 16.1 0.00 0.00 0.00 45 1017.9
20260902110502 23 181 8.0 14.5 0.00 0.00 0.00 44 1018.1
20260902105501 23 194 6.4 12.9 0.00 0.00 0.00 44 1018.3
20260902104115 23 195 4.8 14.5 0.00 0.00 0.00 44 1018.5
20260902103502 23 196 3.2 9.7 0.00 0.00 0.00 46 1018.6
20260902102501 23 218 3.2 8.0 0.00 0.00 0.00 46 1018.6
20260902101115 23 270 4.8 12.9 0.00 0.00 0.00 48 1018.7
20260902100502 23 200 3.2 8.0 0.00 0.00 0.00 53 1018.9
20260902095502 22 50 0.0 6.4 0.00 0.00 0.00 55 1019.2
20260902094115 21 305 3.2 9.7 0.00 0.00 0.00 52 1019.5
20260902093502 21 303 4.8 8.0 0.00 0.00 0.00 56 1019.6
20260902092501 21 328 1.6 6.4 0.00 0.00 0.00 55 1019.7
20260902091114 21 167 1.6 6.4 0.00 0.00 0.00 54 1019.8
20260902090502 20 195 1.6 6.4 0.00 0.00 0.00 56 1019.9